| time (UTC) | temp F | wind direction | speed knots | gust knots | rain 1hr in | rain 24hr in | rain mn in | humidity % | barometer mb |
| 20260505204534 | 80 | 267 | 0.9 | 6.1 | 0.00 | 0.00 | 0.00 | 38 | 1014.6 |
| 20260505203052 | 79 | 0 | 0.0 | 7.8 | 0.00 | 0.00 | 0.00 | 40 | 1014.9 |
| 20260505201541 | 80 | 0 | 0.9 | 4.3 | 0.00 | 0.00 | 0.00 | 36 | 1014.7 |
| 20260505200036 | 78 | 72 | 0.9 | 3.5 | 0.00 | 0.00 | 0.00 | 39 | 1014.9 |
| 20260505194535 | 80 | 0 | 0.0 | 2.6 | 0.00 | 0.00 | 0.00 | 38 | 1015.0 |
| 20260505193034 | 80 | 228 | 2.6 | 9.6 | 0.00 | 0.00 | 0.00 | 38 | 1015.2 |
| 20260505191537 | 80 | 182 | 0.9 | 3.5 | 0.00 | 0.00 | 0.00 | 39 | 1015.5 |
| 20260505190038 | 78 | 278 | 0.9 | 5.2 | 0.00 | 0.00 | 0.00 | 40 | 1016.0 |
| 20260505184540 | 79 | 0 | 0.9 | 3.5 | 0.00 | 0.00 | 0.00 | 39 | 1016.1 |
| 20260505183039 | 78 | 213 | 0.9 | 3.5 | 0.00 | 0.00 | 0.00 | 41 | 1016.4 |
| 20260505181543 | 77 | 294 | 0.9 | 5.2 | 0.00 | 0.00 | 0.00 | 42 | 1016.3 |
| 20260505180039 | 77 | 246 | 0.9 | 4.3 | 0.00 | 0.00 | 0.00 | 42 | 1016.4 |
| 20260505174541 | 77 | 292 | 0.9 | 4.3 | 0.00 | 0.00 | 0.00 | 42 | 1016.6 |
| 20260505173032 | 77 | 0 | 0.9 | 4.3 | 0.00 | 0.00 | 0.00 | 40 | 1016.8 |
| 20260505171542 | 77 | 273 | 1.7 | 5.2 | 0.00 | 0.00 | 0.00 | 40 | 1017.1 |
| 20260505170055 | 76 | 281 | 0.9 | 5.2 | 0.00 | 0.00 | 0.00 | 45 | 1017.2 |
| 20260505164536 | 74 | 305 | 0.0 | 5.2 | 0.00 | 0.00 | 0.00 | 47 | 1017.0 |
| 20260505163037 | 74 | 302 | 1.7 | 4.3 | 0.00 | 0.00 | 0.00 | 47 | 1017.2 |
| 20260505161534 | 73 | 0 | 0.9 | 3.5 | 0.00 | 0.00 | 0.00 | 54 | 1017.1 |
| 20260505153038 | 68 | 265 | 0.0 | 1.7 | 0.00 | 0.00 | 0.00 | 58 | 1017.7 |
| 20260505151550 | 67 | 266 | 0.0 | 1.7 | 0.00 | 0.00 | 0.00 | 57 | 1017.7 |
| 20260505124544 | 51 | 0 | 0.0 | 0.0 | 0.00 | 0.00 | 0.00 | 88 | 1017.0 |
| 20260505123041 | 49 | 0 | 0.0 | 0.0 | 0.00 | 0.00 | 0.00 | 89 | 1016.7 |
| 20260505121538 | 48 | 0 | 0.0 | 0.0 | 0.00 | 0.00 | 0.00 | 89 | 1016.6 |
| 20260505120042 | 46 | 0 | 0.0 | 0.0 | 0.00 | 0.00 | 0.00 | 89 | 1016.3 |
| 20260505114540 | 45 | 0 | 0.0 | 0.0 | 0.00 | 0.00 | 0.00 | 88 | 1016.0 |
| 20260505113035 | 45 | 0 | 0.0 | 0.0 | 0.00 | 0.00 | 0.00 | 88 | 1016.0 |
| 20260505111543 | 45 | 0 | 0.0 | 0.0 | 0.00 | 0.00 | 0.00 | 87 | 1015.8 |
| 20260505101534 | 47 | 0 | 0.0 | 0.0 | 0.00 | 0.00 | 0.00 | 86 | 1015.9 |
| 20260505100041 | 47 | 0 | 0.0 | 0.0 | 0.00 | 0.00 | 0.00 | 85 | 1015.7 |
| 20260505094539 | 47 | 0 | 0.0 | 0.0 | 0.00 | 0.00 | 0.00 | 85 | 1015.7 |
| 20260505093041 | 47 | 0 | 0.0 | 0.0 | 0.00 | 0.00 | 0.00 | 85 | 1015.6 |
| 20260505091540 | 48 | 0 | 0.0 | 0.0 | 0.00 | 0.00 | 0.00 | 85 | 1015.5 |
| 20260505090051 | 48 | 0 | 0.0 | 0.0 | 0.00 | 0.00 | 0.00 | 85 | 1015.4 |
| 20260505084540 | 48 | 0 | 0.0 | 0.0 | 0.00 | 0.00 | 0.00 | 85 | 1015.3 |
| 20260505083036 | 48 | 0 | 0.0 | 0.0 | 0.00 | 0.00 | 0.00 | 85 | 1015.3 |
| 20260505081544 | 49 | 0 | 0.0 | 0.0 | 0.00 | 0.00 | 0.00 | 85 | 1015.4 |
| 20260505080038 | 49 | 0 | 0.0 | 0.0 | 0.00 | 0.00 | 0.00 | 86 | 1015.4 |
| 20260505074537 | 49 | 0 | 0.0 | 0.0 | 0.00 | 0.00 | 0.00 | 86 | 1015.4 |
| 20260505073038 | 49 | 0 | 0.0 | 0.0 | 0.00 | 0.00 | 0.00 | 86 | 1015.4 |
| 20260505071532 | 49 | 0 | 0.0 | 0.0 | 0.00 | 0.00 | 0.00 | 86 | 1015.4 |
| 20260505070033 | 49 | 0 | 0.0 | 0.9 | 0.00 | 0.00 | 0.00 | 86 | 1015.4 |
| 20260505064534 | 49 | 0 | 0.0 | 0.9 | 0.00 | 0.00 | 0.00 | 85 | 1015.4 |
| 20260505063039 | 50 | 0 | 0.0 | 0.9 | 0.00 | 0.00 | 0.00 | 84 | 1015.6 |
| 20260505061539 | 50 | 0 | 0.0 | 0.9 | 0.00 | 0.00 | 0.00 | 85 | 1015.8 |
| 20260505060036 | 51 | 0 | 0.0 | 0.0 | 0.00 | 0.00 | 0.00 | 85 | 1015.8 |
| 20260505054544 | 51 | 0 | 0.0 | 0.0 | 0.00 | 0.00 | 0.00 | 85 | 1015.8 |
| 20260505053045 | 51 | 0 | 0.0 | 0.0 | 0.00 | 0.00 | 0.00 | 84 | 1015.7 |
| 20260505051537 | 51 | 0 | 0.0 | 0.0 | 0.00 | 0.00 | 0.00 | 84 | 1015.8 |
| 20260505041538 | 54 | 0 | 0.0 | 0.0 | 0.00 | 0.00 | 0.00 | 82 | 1015.7 |
| 20260505040038 | 54 | 0 | 0.0 | 0.0 | 0.00 | 0.00 | 0.00 | 81 | 1015.9 |
| 20260505034536 | 54 | 0 | 0.0 | 0.0 | 0.00 | 0.00 | 0.00 | 81 | 1015.9 |
| 20260505033117 | 55 | 0 | 0.0 | 0.0 | 0.00 | 0.00 | 0.00 | 81 | 1015.9 |
| 20260505031538 | 55 | 0 | 0.0 | 0.9 | 0.00 | 0.00 | 0.00 | 81 | 1016.0 |
| 20260505030038 | 55 | 0 | 0.0 | 0.9 | 0.00 | 0.00 | 0.00 | 80 | 1015.9 |
| 20260505024536 | 56 | 0 | 0.0 | 0.0 | 0.00 | 0.00 | 0.00 | 79 | 1016.1 |
| 20260505023042 | 57 | 0 | 0.0 | 0.9 | 0.00 | 0.00 | 0.00 | 78 | 1016.0 |
| 20260505021533 | 58 | 0 | 0.0 | 0.0 | 0.00 | 0.00 | 0.00 | 77 | 1015.9 |
| 20260505020035 | 59 | 0 | 0.0 | 0.0 | 0.00 | 0.00 | 0.00 | 75 | 1015.7 |
| 20260505014540 | 60 | 0 | 0.0 | 0.0 | 0.00 | 0.00 | 0.00 | 73 | 1015.7 |
| 20260505013037 | 60 | 0 | 0.0 | 0.0 | 0.00 | 0.00 | 0.00 | 72 | 1015.7 |
| 20260505011537 | 61 | 0 | 0.0 | 0.0 | 0.00 | 0.00 | 0.00 | 71 | 1015.4 |
| 20260505010037 | 62 | 0 | 0.0 | 0.0 | 0.00 | 0.00 | 0.00 | 69 | 1015.3 |
| 20260505004544 | 64 | 0 | 0.0 | 0.0 | 0.00 | 0.00 | 0.00 | 66 | 1015.3 |
| 20260505003037 | 65 | 0 | 0.0 | 0.0 | 0.00 | 0.00 | 0.00 | 62 | 1015.0 |
| 20260505001537 | 67 | 0 | 0.0 | 0.0 | 0.00 | 0.00 | 0.00 | 59 | 1015.1 |
| 20260505000037 | 68 | 0 | 0.0 | 0.9 | 0.00 | 0.00 | 0.00 | 58 | 1015.0 |
| 20260504234550 | 70 | 0 | 0.0 | 0.0 | 0.00 | 0.00 | 0.00 | 56 | 1015.0 |
| 20260504233035 | 71 | 0 | 0.0 | 0.0 | 0.00 | 0.00 | 0.00 | 56 | 1015.0 |
| 20260504231548 | 71 | 0 | 0.0 | 0.9 | 0.00 | 0.00 | 0.00 | 51 | 1015.0 |
| 20260504230035 | 72 | 0 | 0.0 | 0.9 | 0.00 | 0.00 | 0.00 | 47 | 1014.9 |
| 20260504224537 | 74 | 0 | 0.0 | 3.5 | 0.00 | 0.00 | 0.00 | 45 | 1014.8 |
| 20260504223039 | 75 | 0 | 0.0 | 1.7 | 0.00 | 0.00 | 0.00 | 40 | 1014.7 |
| 20260504221535 | 76 | 315 | 0.0 | 2.6 | 0.00 | 0.00 | 0.00 | 40 | 1014.8 |
| 20260504220032 | 76 | 0 | 0.0 | 2.6 | 0.00 | 0.00 | 0.00 | 40 | 1014.9 |
| 20260504214539 | 77 | 36 | 0.0 | 3.5 | 0.00 | 0.00 | 0.00 | 38 | 1014.7 |
| 20260504213037 | 75 | 0 | 0.0 | 3.5 | 0.00 | 0.00 | 0.00 | 44 | 1014.9 |
| 20260504211539 | 76 | 306 | 0.0 | 4.3 | 0.00 | 0.00 | 0.00 | 43 | 1014.8 |
| 20260504210037 | 75 | 0 | 0.0 | 1.7 | 0.00 | 0.00 | 0.00 | 43 | 1014.8 |